Weather in Vysokogorye

Russia / Kirov Oblast     58°14′27″N   47°11′37″E
temp.,
°C
wind,
m/s
gust,
m/s
humid.,
%
clouds,
%
prec.,
mm/h
press.,
hPa
HPBL,
m
13 may, thu
thu1300:00+14ese22805 0.0 102532
03:00+13se22792 0.0 102519
06:00+16se247137 0.0 1025112
09:00+22se35505 0.0 1024514
12:00+25sse473669 0.0 10232403
15:00+25sse56359 0.0 10222250
18:00+22s51051100 0.0 1021872
21:00+17se3107199 0.0 1020270
14 may, fri
fri1400:00+17sse4147592 0.2 1019477
03:00+15sse3108892 0.3 1019293
06:00+16ssw368445 0.1 1019331
09:00+21sw246684 0.1 1019951
12:00+23sw4551100 0.0 10191655
15:00+23sw3551100 0.0 10191403
18:00+21sw25605 0.0 1018444
21:00+16wsw1175100 0.0 101911
15 may, sat
sat1500:00+16sse1174100 0.0 101911
03:00+15ese228491 0.0 101843
06:00+17ese3783100 0.0 1018206
09:00+22sse4766100 0.0 1017548
12:00+26sse5746100 0.0 10151241
15:00+27s6123870 0.0 10141500
18:00+24s613465 0.0 10131069
21:00+19s415583 0.0 1013571
16 may, sun
sun1600:00+18ssw4136972 0.0 1013506
03:00+15s311855 0.0 1014286
06:00+18ssw4107945 0.0 1014450
09:00+22sw6105491 0.0 10141314
12:00+24sw6942100 0.0 10141640
15:00+24sw593992 0.0 10141950
18:00+22wsw47501 0.0 1013685
21:00+16wsw367334 0.0 101495
17 may, mon
mon1700:00+14w26820 0.0 1015121
03:00+13wsw25905 0.0 1016104
06:00+16w24770 0.0 1017226
09:00+21w23553 0.0 10181040
12:00+24wsw244298 0.0 10171989
15:00+24wsw2340100 0.0 10172074
18:00+23wsw115499 0.0 101825
21:00+17sw006966 0.0 101811